Index of /20260430/WXO-DD/model_gdps/15km/00/234
Name Last modified Size Description
Parent Directory -
20260430T00Z_MSC_GDPS_AbsoluteVorticity_IsbL-0200_LatLon0.15_PT234H.grib2 2026-04-30 04:44 1.5M
20260430T00Z_MSC_GDPS_AbsoluteVorticity_IsbL-0250_LatLon0.15_PT234H.grib2 2026-04-30 04:44 1.3M
20260430T00Z_MSC_GDPS_AbsoluteVorticity_IsbL-0500_LatLon0.15_PT234H.grib2 2026-04-30 04:44 1.2M
20260430T00Z_MSC_GDPS_AbsoluteVorticity_IsbL-0700_LatLon0.15_PT234H.grib2 2026-04-30 04:44 1.6M
20260430T00Z_MSC_GDPS_AbsoluteVorticity_IsbL-0850_LatLon0.15_PT234H.grib2 2026-04-30 04:44 1.6M
20260430T00Z_MSC_GDPS_AirTemp-Max_AGL-2m_LatLon0.15_PT234H.grib2 2026-04-30 04:44 748K
20260430T00Z_MSC_GDPS_AirTemp-Min_AGL-2m_LatLon0.15_PT234H.grib2 2026-04-30 04:44 796K
20260430T00Z_MSC_GDPS_AirTemp_AGL-120m_LatLon0.15_PT234H.grib2 2026-04-30 04:44 911K
20260430T00Z_MSC_GDPS_AirTemp_AGL-2m_LatLon0.15_PT234H.grib2 2026-04-30 04:44 1.0M
20260430T00Z_MSC_GDPS_AirTemp_AGL-40m_LatLon0.15_PT234H.grib2 2026-04-30 04:44 816K
20260430T00Z_MSC_GDPS_AirTemp_AGL-80m_LatLon0.15_PT234H.grib2 2026-04-30 04:44 802K
20260430T00Z_MSC_GDPS_AirTemp_IsbL-0001_LatLon0.15_PT234H.grib2 2026-04-30 04:44 657K
20260430T00Z_MSC_GDPS_AirTemp_IsbL-0005_LatLon0.15_PT234H.grib2 2026-04-30 04:44 689K
20260430T00Z_MSC_GDPS_AirTemp_IsbL-0010_LatLon0.15_PT234H.grib2 2026-04-30 04:44 694K
20260430T00Z_MSC_GDPS_AirTemp_IsbL-0020_LatLon0.15_PT234H.grib2 2026-04-30 04:44 784K
20260430T00Z_MSC_GDPS_AirTemp_IsbL-0030_LatLon0.15_PT234H.grib2 2026-04-30 04:44 830K
20260430T00Z_MSC_GDPS_AirTemp_IsbL-0050_LatLon0.15_PT234H.grib2 2026-04-30 04:44 876K
20260430T00Z_MSC_GDPS_AirTemp_IsbL-0100_LatLon0.15_PT234H.grib2 2026-04-30 04:44 964K
20260430T00Z_MSC_GDPS_AirTemp_IsbL-0150_LatLon0.15_PT234H.grib2 2026-04-30 04:44 1.0M
20260430T00Z_MSC_GDPS_AirTemp_IsbL-0175_LatLon0.15_PT234H.grib2 2026-04-30 04:44 953K
20260430T00Z_MSC_GDPS_AirTemp_IsbL-0200_LatLon0.15_PT234H.grib2 2026-04-30 04:44 964K
20260430T00Z_MSC_GDPS_AirTemp_IsbL-0225_LatLon0.15_PT234H.grib2 2026-04-30 04:44 965K
20260430T00Z_MSC_GDPS_AirTemp_IsbL-0250_LatLon0.15_PT234H.grib2 2026-04-30 04:44 1.0M
20260430T00Z_MSC_GDPS_AirTemp_IsbL-0275_LatLon0.15_PT234H.grib2 2026-04-30 04:44 1.0M
20260430T00Z_MSC_GDPS_AirTemp_IsbL-0300_LatLon0.15_PT234H.grib2 2026-04-30 04:44 1.0M
20260430T00Z_MSC_GDPS_AirTemp_IsbL-0350_LatLon0.15_PT234H.grib2 2026-04-30 04:44 930K
20260430T00Z_MSC_GDPS_AirTemp_IsbL-0400_LatLon0.15_PT234H.grib2 2026-04-30 04:44 945K
20260430T00Z_MSC_GDPS_AirTemp_IsbL-0450_LatLon0.15_PT234H.grib2 2026-04-30 04:44 968K
20260430T00Z_MSC_GDPS_AirTemp_IsbL-0500_LatLon0.15_PT234H.grib2 2026-04-30 04:44 1.0M
20260430T00Z_MSC_GDPS_AirTemp_IsbL-0550_LatLon0.15_PT234H.grib2 2026-04-30 04:44 803K
20260430T00Z_MSC_GDPS_AirTemp_IsbL-0600_LatLon0.15_PT234H.grib2 2026-04-30 04:44 893K
20260430T00Z_MSC_GDPS_AirTemp_IsbL-0650_LatLon0.15_PT234H.grib2 2026-04-30 04:44 921K
20260430T00Z_MSC_GDPS_AirTemp_IsbL-0700_LatLon0.15_PT234H.grib2 2026-04-30 04:44 958K
20260430T00Z_MSC_GDPS_AirTemp_IsbL-0750_LatLon0.15_PT234H.grib2 2026-04-30 04:44 1.0M
20260430T00Z_MSC_GDPS_AirTemp_IsbL-0800_LatLon0.15_PT234H.grib2 2026-04-30 04:44 1.1M
20260430T00Z_MSC_GDPS_AirTemp_IsbL-0850_LatLon0.15_PT234H.grib2 2026-04-30 04:44 1.1M
20260430T00Z_MSC_GDPS_AirTemp_IsbL-0875_LatLon0.15_PT234H.grib2 2026-04-30 04:44 1.2M
20260430T00Z_MSC_GDPS_AirTemp_IsbL-0900_LatLon0.15_PT234H.grib2 2026-04-30 04:44 1.2M
20260430T00Z_MSC_GDPS_AirTemp_IsbL-0925_LatLon0.15_PT234H.grib2 2026-04-30 04:44 1.1M
20260430T00Z_MSC_GDPS_AirTemp_IsbL-0950_LatLon0.15_PT234H.grib2 2026-04-30 04:44 1.1M
20260430T00Z_MSC_GDPS_AirTemp_IsbL-0970_LatLon0.15_PT234H.grib2 2026-04-30 04:44 1.2M
20260430T00Z_MSC_GDPS_AirTemp_IsbL-0985_LatLon0.15_PT234H.grib2 2026-04-30 04:44 1.1M
20260430T00Z_MSC_GDPS_AirTemp_IsbL-1000_LatLon0.15_PT234H.grib2 2026-04-30 04:44 1.1M
20260430T00Z_MSC_GDPS_AirTemp_IsbL-1015_LatLon0.15_PT234H.grib2 2026-04-30 04:44 1.1M
20260430T00Z_MSC_GDPS_Albedo_Sfc_LatLon0.15_PT234H.grib2 2026-04-30 04:44 245K
20260430T00Z_MSC_GDPS_CAPE_Sfc_LatLon0.15_PT234H.grib2 2026-04-30 04:44 4.0M
20260430T00Z_MSC_GDPS_CIN_Sfc_LatLon0.15_PT234H.grib2 2026-04-30 04:44 2.8M
20260430T00Z_MSC_GDPS_CloudWater_EAtm_LatLon0.15_PT234H.grib2 2026-04-30 04:44 544K
20260430T00Z_MSC_GDPS_ConvectivePrecip-Accum_Sfc_LatLon0.15_PT234H.grib2 2026-04-30 04:44 3.8M
20260430T00Z_MSC_GDPS_DewPointDepression_AGL-2m_LatLon0.15_PT234H.grib2 2026-04-30 04:44 763K
20260430T00Z_MSC_GDPS_DewPointDepression_IsbL-0010_LatLon0.15_PT234H.grib2 2026-04-30 04:44 73K
20260430T00Z_MSC_GDPS_DewPointDepression_IsbL-0020_LatLon0.15_PT234H.grib2 2026-04-30 04:44 72K
20260430T00Z_MSC_GDPS_DewPointDepression_IsbL-0030_LatLon0.15_PT234H.grib2 2026-04-30 04:44 87K
20260430T00Z_MSC_GDPS_DewPointDepression_IsbL-0050_LatLon0.15_PT234H.grib2 2026-04-30 04:44 378K
20260430T00Z_MSC_GDPS_DewPointDepression_IsbL-0100_LatLon0.15_PT234H.grib2 2026-04-30 04:44 394K
20260430T00Z_MSC_GDPS_DewPointDepression_IsbL-0150_LatLon0.15_PT234H.grib2 2026-04-30 04:44 501K
20260430T00Z_MSC_GDPS_DewPointDepression_IsbL-0175_LatLon0.15_PT234H.grib2 2026-04-30 04:44 588K
20260430T00Z_MSC_GDPS_DewPointDepression_IsbL-0200_LatLon0.15_PT234H.grib2 2026-04-30 04:44 689K
20260430T00Z_MSC_GDPS_DewPointDepression_IsbL-0225_LatLon0.15_PT234H.grib2 2026-04-30 04:44 777K
20260430T00Z_MSC_GDPS_DewPointDepression_IsbL-0250_LatLon0.15_PT234H.grib2 2026-04-30 04:44 871K
20260430T00Z_MSC_GDPS_DewPointDepression_IsbL-0275_LatLon0.15_PT234H.grib2 2026-04-30 04:44 891K
20260430T00Z_MSC_GDPS_DewPointDepression_IsbL-0300_LatLon0.15_PT234H.grib2 2026-04-30 04:44 938K
20260430T00Z_MSC_GDPS_DewPointDepression_IsbL-0350_LatLon0.15_PT234H.grib2 2026-04-30 04:44 1.0M
20260430T00Z_MSC_GDPS_DewPointDepression_IsbL-0400_LatLon0.15_PT234H.grib2 2026-04-30 04:44 1.0M
20260430T00Z_MSC_GDPS_DewPointDepression_IsbL-0450_LatLon0.15_PT234H.grib2 2026-04-30 04:44 1.0M
20260430T00Z_MSC_GDPS_DewPointDepression_IsbL-0500_LatLon0.15_PT234H.grib2 2026-04-30 04:44 1.0M
20260430T00Z_MSC_GDPS_DewPointDepression_IsbL-0550_LatLon0.15_PT234H.grib2 2026-04-30 04:44 1.0M
20260430T00Z_MSC_GDPS_DewPointDepression_IsbL-0600_LatLon0.15_PT234H.grib2 2026-04-30 04:44 1.1M
20260430T00Z_MSC_GDPS_DewPointDepression_IsbL-0650_LatLon0.15_PT234H.grib2 2026-04-30 04:44 1.1M
20260430T00Z_MSC_GDPS_DewPointDepression_IsbL-0700_LatLon0.15_PT234H.grib2 2026-04-30 04:44 1.1M
20260430T00Z_MSC_GDPS_DewPointDepression_IsbL-0750_LatLon0.15_PT234H.grib2 2026-04-30 04:44 1.1M
20260430T00Z_MSC_GDPS_DewPointDepression_IsbL-0800_LatLon0.15_PT234H.grib2 2026-04-30 04:44 1.2M
20260430T00Z_MSC_GDPS_DewPointDepression_IsbL-0850_LatLon0.15_PT234H.grib2 2026-04-30 04:44 1.2M
20260430T00Z_MSC_GDPS_DewPointDepression_IsbL-0875_LatLon0.15_PT234H.grib2 2026-04-30 04:44 1.1M
20260430T00Z_MSC_GDPS_DewPointDepression_IsbL-0900_LatLon0.15_PT234H.grib2 2026-04-30 04:44 1.1M
20260430T00Z_MSC_GDPS_DewPointDepression_IsbL-0925_LatLon0.15_PT234H.grib2 2026-04-30 04:44 1.0M
20260430T00Z_MSC_GDPS_DewPointDepression_IsbL-0950_LatLon0.15_PT234H.grib2 2026-04-30 04:44 1.0M
20260430T00Z_MSC_GDPS_DewPointDepression_IsbL-0970_LatLon0.15_PT234H.grib2 2026-04-30 04:44 1.0M
20260430T00Z_MSC_GDPS_DewPointDepression_IsbL-0985_LatLon0.15_PT234H.grib2 2026-04-30 04:44 1.0M
20260430T00Z_MSC_GDPS_DewPointDepression_IsbL-1000_LatLon0.15_PT234H.grib2 2026-04-30 04:44 966K
20260430T00Z_MSC_GDPS_DewPointDepression_IsbL-1015_LatLon0.15_PT234H.grib2 2026-04-30 04:44 909K
20260430T00Z_MSC_GDPS_DewPoint_AGL-2m_LatLon0.15_PT234H.grib2 2026-04-30 04:44 611K
20260430T00Z_MSC_GDPS_DownwardLongwaveRadiationFlux-Accum_Sfc_LatLon0.15_PT234H.grib2 2026-04-30 04:44 740K
20260430T00Z_MSC_GDPS_DownwardShortwaveRadiationFlux-Accum_NTAtm_LatLon0.15_PT234H.grib2 2026-04-30 04:44 262K
20260430T00Z_MSC_GDPS_DownwardShortwaveRadiationFlux-Accum_Sfc_LatLon0.15_PT234H.grib2 2026-04-30 04:44 912K
20260430T00Z_MSC_GDPS_FreezingRain-Accum12h_Sfc_LatLon0.15_PT234H.grib2 2026-04-30 04:44 103K
20260430T00Z_MSC_GDPS_FreezingRain-Accum24h_Sfc_LatLon0.15_PT234H.grib2 2026-04-30 04:44 128K
20260430T00Z_MSC_GDPS_FreezingRain-Accum6h_Sfc_LatLon0.15_PT234H.grib2 2026-04-30 04:44 86K
20260430T00Z_MSC_GDPS_FreezingRain-Accum_Sfc_LatLon0.15_PT234H.grib2 2026-04-30 04:44 415K
20260430T00Z_MSC_GDPS_GeopotentialHeight_IsbL-0001_LatLon0.15_PT234H.grib2 2026-04-30 04:44 432K
20260430T00Z_MSC_GDPS_GeopotentialHeight_IsbL-0005_LatLon0.15_PT234H.grib2 2026-04-30 04:44 487K
20260430T00Z_MSC_GDPS_GeopotentialHeight_IsbL-0010_LatLon0.15_PT234H.grib2 2026-04-30 04:44 475K
20260430T00Z_MSC_GDPS_GeopotentialHeight_IsbL-0020_LatLon0.15_PT234H.grib2 2026-04-30 04:44 405K
20260430T00Z_MSC_GDPS_GeopotentialHeight_IsbL-0030_LatLon0.15_PT234H.grib2 2026-04-30 04:44 411K
20260430T00Z_MSC_GDPS_GeopotentialHeight_IsbL-0050_LatLon0.15_PT234H.grib2 2026-04-30 04:44 571K
20260430T00Z_MSC_GDPS_GeopotentialHeight_IsbL-0100_LatLon0.15_PT234H.grib2 2026-04-30 04:44 617K
20260430T00Z_MSC_GDPS_GeopotentialHeight_IsbL-0150_LatLon0.15_PT234H.grib2 2026-04-30 04:44 636K
20260430T00Z_MSC_GDPS_GeopotentialHeight_IsbL-0175_LatLon0.15_PT234H.grib2 2026-04-30 04:44 639K
20260430T00Z_MSC_GDPS_GeopotentialHeight_IsbL-0200_LatLon0.15_PT234H.grib2 2026-04-30 04:44 643K
20260430T00Z_MSC_GDPS_GeopotentialHeight_IsbL-0225_LatLon0.15_PT234H.grib2 2026-04-30 04:44 646K
20260430T00Z_MSC_GDPS_GeopotentialHeight_IsbL-0250_LatLon0.15_PT234H.grib2 2026-04-30 04:44 643K
20260430T00Z_MSC_GDPS_GeopotentialHeight_IsbL-0275_LatLon0.15_PT234H.grib2 2026-04-30 04:44 644K
20260430T00Z_MSC_GDPS_GeopotentialHeight_IsbL-0300_LatLon0.15_PT234H.grib2 2026-04-30 04:44 635K
20260430T00Z_MSC_GDPS_GeopotentialHeight_IsbL-0350_LatLon0.15_PT234H.grib2 2026-04-30 04:44 632K
20260430T00Z_MSC_GDPS_GeopotentialHeight_IsbL-0400_LatLon0.15_PT234H.grib2 2026-04-30 04:44 621K
20260430T00Z_MSC_GDPS_GeopotentialHeight_IsbL-0450_LatLon0.15_PT234H.grib2 2026-04-30 04:44 613K
20260430T00Z_MSC_GDPS_GeopotentialHeight_IsbL-0500_LatLon0.15_PT234H.grib2 2026-04-30 04:44 533K
20260430T00Z_MSC_GDPS_GeopotentialHeight_IsbL-0550_LatLon0.15_PT234H.grib2 2026-04-30 04:44 529K
20260430T00Z_MSC_GDPS_GeopotentialHeight_IsbL-0600_LatLon0.15_PT234H.grib2 2026-04-30 04:44 524K
20260430T00Z_MSC_GDPS_GeopotentialHeight_IsbL-0650_LatLon0.15_PT234H.grib2 2026-04-30 04:44 693K
20260430T00Z_MSC_GDPS_GeopotentialHeight_IsbL-0700_LatLon0.15_PT234H.grib2 2026-04-30 04:44 695K
20260430T00Z_MSC_GDPS_GeopotentialHeight_IsbL-0750_LatLon0.15_PT234H.grib2 2026-04-30 04:44 697K
20260430T00Z_MSC_GDPS_GeopotentialHeight_IsbL-0800_LatLon0.15_PT234H.grib2 2026-04-30 04:44 712K
20260430T00Z_MSC_GDPS_GeopotentialHeight_IsbL-0850_LatLon0.15_PT234H.grib2 2026-04-30 04:44 717K
20260430T00Z_MSC_GDPS_GeopotentialHeight_IsbL-0875_LatLon0.15_PT234H.grib2 2026-04-30 04:44 722K
20260430T00Z_MSC_GDPS_GeopotentialHeight_IsbL-0900_LatLon0.15_PT234H.grib2 2026-04-30 04:44 728K
20260430T00Z_MSC_GDPS_GeopotentialHeight_IsbL-0925_LatLon0.15_PT234H.grib2 2026-04-30 04:44 737K
20260430T00Z_MSC_GDPS_GeopotentialHeight_IsbL-0950_LatLon0.15_PT234H.grib2 2026-04-30 04:44 744K
20260430T00Z_MSC_GDPS_GeopotentialHeight_IsbL-0970_LatLon0.15_PT234H.grib2 2026-04-30 04:44 755K
20260430T00Z_MSC_GDPS_GeopotentialHeight_IsbL-0985_LatLon0.15_PT234H.grib2 2026-04-30 04:44 771K
20260430T00Z_MSC_GDPS_GeopotentialHeight_IsbL-1000_LatLon0.15_PT234H.grib2 2026-04-30 04:44 792K
20260430T00Z_MSC_GDPS_GeopotentialHeight_IsbL-1015_LatLon0.15_PT234H.grib2 2026-04-30 04:44 816K
20260430T00Z_MSC_GDPS_Humidex_Sfc_LatLon0.15_PT234H.grib2 2026-04-30 04:44 5.3M
20260430T00Z_MSC_GDPS_IcePellets-Accum12h_Sfc_LatLon0.15_PT234H.grib2 2026-04-30 04:44 26K
20260430T00Z_MSC_GDPS_IcePellets-Accum24h_Sfc_LatLon0.15_PT234H.grib2 2026-04-30 04:44 27K
20260430T00Z_MSC_GDPS_IcePellets-Accum6h_Sfc_LatLon0.15_PT234H.grib2 2026-04-30 04:44 21K
20260430T00Z_MSC_GDPS_IcePellets-Accum_Sfc_LatLon0.15_PT234H.grib2 2026-04-30 04:44 151K
20260430T00Z_MSC_GDPS_KIndex_Sfc_LatLon0.15_PT234H.grib2 2026-04-30 04:44 6.5M
20260430T00Z_MSC_GDPS_LatentHeatNetFlux_Sfc_LatLon0.15_PT234H.grib2 2026-04-30 04:44 696K
20260430T00Z_MSC_GDPS_LiftedIndex-MU-VT_IsbL-0500_LatLon0.15_PT234H.grib2 2026-04-30 04:44 5.4M
20260430T00Z_MSC_GDPS_NetLongwaveRadiationFlux-Accum_Sfc_LatLon0.15_PT234H.grib2 2026-04-30 04:44 966K
20260430T00Z_MSC_GDPS_NetShortwaveRadiationFlux-Accum_Sfc_LatLon0.15_PT234H.grib2 2026-04-30 04:44 912K
20260430T00Z_MSC_GDPS_O3MixingRatio_Sfc_LatLon0.15_PT234H.grib2 2026-04-30 04:52 2.2M
20260430T00Z_MSC_GDPS_O3_EAtm_LatLon0.15_PT234H.grib2 2026-04-30 04:52 2.4M
20260430T00Z_MSC_GDPS_PlanetaryBoundaryLayerHeight_Sfc_LatLon0.15_PT234H.grib2 2026-04-30 04:44 2.4M
20260430T00Z_MSC_GDPS_Precip-Accum12h_Sfc_LatLon0.15_PT234H.grib2 2026-04-30 04:44 4.1M
20260430T00Z_MSC_GDPS_Precip-Accum24h_Sfc_LatLon0.15_PT234H.grib2 2026-04-30 04:44 4.6M
20260430T00Z_MSC_GDPS_Precip-Accum6h_Sfc_LatLon0.15_PT234H.grib2 2026-04-30 04:44 3.6M
20260430T00Z_MSC_GDPS_Precip-Accum_Sfc_LatLon0.15_PT234H.grib2 2026-04-30 04:44 5.1M
20260430T00Z_MSC_GDPS_PrecipRate_Sfc_LatLon0.15_PT234H.grib2 2026-04-30 04:44 3.0M
20260430T00Z_MSC_GDPS_PrecipType-Instant_Sfc_LatLon0.15_PT234H.grib2 2026-04-30 04:44 1.6M
20260430T00Z_MSC_GDPS_Pressure_MSL_LatLon0.15_PT234H.grib2 2026-04-30 04:44 729K
20260430T00Z_MSC_GDPS_Pressure_PVU-1.5_LatLon0.15_PT234H.grib2 2026-04-30 04:44 5.8M
20260430T00Z_MSC_GDPS_Pressure_PVU-1_LatLon0.15_PT234H.grib2 2026-04-30 04:44 6.0M
20260430T00Z_MSC_GDPS_Pressure_PVU-2_LatLon0.15_PT234H.grib2 2026-04-30 04:44 5.6M
20260430T00Z_MSC_GDPS_Pressure_Sfc_LatLon0.15_PT234H.grib2 2026-04-30 04:44 1.1M
20260430T00Z_MSC_GDPS_RadiativeTemp_Sfc_LatLon0.15_PT234H.grib2 2026-04-30 04:44 669K
20260430T00Z_MSC_GDPS_Rain-Accum12h_Sfc_LatLon0.15_PT234H.grib2 2026-04-30 04:44 2.7M
20260430T00Z_MSC_GDPS_Rain-Accum24h_Sfc_LatLon0.15_PT234H.grib2 2026-04-30 04:44 3.2M
20260430T00Z_MSC_GDPS_Rain-Accum6h_Sfc_LatLon0.15_PT234H.grib2 2026-04-30 04:44 2.4M
20260430T00Z_MSC_GDPS_Rain-Accum_Sfc_LatLon0.15_PT234H.grib2 2026-04-30 04:44 4.1M
20260430T00Z_MSC_GDPS_RelativeHumidity_AGL-2m_LatLon0.15_PT234H.grib2 2026-04-30 04:44 1.0M
20260430T00Z_MSC_GDPS_RelativeHumidity_IsbL-0010_LatLon0.15_PT234H.grib2 2026-04-30 04:44 122K
20260430T00Z_MSC_GDPS_RelativeHumidity_IsbL-0020_LatLon0.15_PT234H.grib2 2026-04-30 04:44 152K
20260430T00Z_MSC_GDPS_RelativeHumidity_IsbL-0030_LatLon0.15_PT234H.grib2 2026-04-30 04:44 179K
20260430T00Z_MSC_GDPS_RelativeHumidity_IsbL-0050_LatLon0.15_PT234H.grib2 2026-04-30 04:44 330K
20260430T00Z_MSC_GDPS_RelativeHumidity_IsbL-0100_LatLon0.15_PT234H.grib2 2026-04-30 04:44 494K
20260430T00Z_MSC_GDPS_RelativeHumidity_IsbL-0150_LatLon0.15_PT234H.grib2 2026-04-30 04:44 684K
20260430T00Z_MSC_GDPS_RelativeHumidity_IsbL-0175_LatLon0.15_PT234H.grib2 2026-04-30 04:44 805K
20260430T00Z_MSC_GDPS_RelativeHumidity_IsbL-0200_LatLon0.15_PT234H.grib2 2026-04-30 04:44 716K
20260430T00Z_MSC_GDPS_RelativeHumidity_IsbL-0225_LatLon0.15_PT234H.grib2 2026-04-30 04:44 795K
20260430T00Z_MSC_GDPS_RelativeHumidity_IsbL-0250_LatLon0.15_PT234H.grib2 2026-04-30 04:44 871K
20260430T00Z_MSC_GDPS_RelativeHumidity_IsbL-0275_LatLon0.15_PT234H.grib2 2026-04-30 04:44 894K
20260430T00Z_MSC_GDPS_RelativeHumidity_IsbL-0300_LatLon0.15_PT234H.grib2 2026-04-30 04:44 937K
20260430T00Z_MSC_GDPS_RelativeHumidity_IsbL-0350_LatLon0.15_PT234H.grib2 2026-04-30 04:44 960K
20260430T00Z_MSC_GDPS_RelativeHumidity_IsbL-0400_LatLon0.15_PT234H.grib2 2026-04-30 04:44 1.0M
20260430T00Z_MSC_GDPS_RelativeHumidity_IsbL-0450_LatLon0.15_PT234H.grib2 2026-04-30 04:44 1.0M
20260430T00Z_MSC_GDPS_RelativeHumidity_IsbL-0500_LatLon0.15_PT234H.grib2 2026-04-30 04:44 1.0M
20260430T00Z_MSC_GDPS_RelativeHumidity_IsbL-0550_LatLon0.15_PT234H.grib2 2026-04-30 04:44 1.0M
20260430T00Z_MSC_GDPS_RelativeHumidity_IsbL-0600_LatLon0.15_PT234H.grib2 2026-04-30 04:44 1.1M
20260430T00Z_MSC_GDPS_RelativeHumidity_IsbL-0650_LatLon0.15_PT234H.grib2 2026-04-30 04:44 1.1M
20260430T00Z_MSC_GDPS_RelativeHumidity_IsbL-0700_LatLon0.15_PT234H.grib2 2026-04-30 04:44 1.1M
20260430T00Z_MSC_GDPS_RelativeHumidity_IsbL-0750_LatLon0.15_PT234H.grib2 2026-04-30 04:44 1.1M
20260430T00Z_MSC_GDPS_RelativeHumidity_IsbL-0800_LatLon0.15_PT234H.grib2 2026-04-30 04:44 1.2M
20260430T00Z_MSC_GDPS_RelativeHumidity_IsbL-0850_LatLon0.15_PT234H.grib2 2026-04-30 04:44 1.3M
20260430T00Z_MSC_GDPS_RelativeHumidity_IsbL-0875_LatLon0.15_PT234H.grib2 2026-04-30 04:44 1.3M
20260430T00Z_MSC_GDPS_RelativeHumidity_IsbL-0900_LatLon0.15_PT234H.grib2 2026-04-30 04:44 1.2M
20260430T00Z_MSC_GDPS_RelativeHumidity_IsbL-0925_LatLon0.15_PT234H.grib2 2026-04-30 04:44 1.2M
20260430T00Z_MSC_GDPS_RelativeHumidity_IsbL-0950_LatLon0.15_PT234H.grib2 2026-04-30 04:44 1.2M
20260430T00Z_MSC_GDPS_RelativeHumidity_IsbL-0970_LatLon0.15_PT234H.grib2 2026-04-30 04:44 1.2M
20260430T00Z_MSC_GDPS_RelativeHumidity_IsbL-0985_LatLon0.15_PT234H.grib2 2026-04-30 04:44 1.1M
20260430T00Z_MSC_GDPS_RelativeHumidity_IsbL-1000_LatLon0.15_PT234H.grib2 2026-04-30 04:44 1.1M
20260430T00Z_MSC_GDPS_RelativeHumidity_IsbL-1015_LatLon0.15_PT234H.grib2 2026-04-30 04:44 1.0M
20260430T00Z_MSC_GDPS_RelativeVorticity_IsbL-0200_LatLon0.15_PT234H.grib2 2026-04-30 04:44 1.5M
20260430T00Z_MSC_GDPS_RelativeVorticity_IsbL-0250_LatLon0.15_PT234H.grib2 2026-04-30 04:44 1.3M
20260430T00Z_MSC_GDPS_RelativeVorticity_IsbL-0500_LatLon0.15_PT234H.grib2 2026-04-30 04:44 1.5M
20260430T00Z_MSC_GDPS_RelativeVorticity_IsbL-0700_LatLon0.15_PT234H.grib2 2026-04-30 04:44 1.6M
20260430T00Z_MSC_GDPS_RelativeVorticity_IsbL-0850_LatLon0.15_PT234H.grib2 2026-04-30 04:44 1.6M
20260430T00Z_MSC_GDPS_Runoff-Accum_Sfc_LatLon0.15_PT234H.grib2 2026-04-30 04:44 141K
20260430T00Z_MSC_GDPS_SensibleHeatNetFlux_Sfc_LatLon0.15_PT234H.grib2 2026-04-30 04:44 470K
20260430T00Z_MSC_GDPS_ShowalterIndex_IsbL-0500_LatLon0.15_PT234H.grib2 2026-04-30 04:44 6.2M
20260430T00Z_MSC_GDPS_Snow-Accum12h_Sfc_LatLon0.15_PT234H.grib2 2026-04-30 04:44 1.5M
20260430T00Z_MSC_GDPS_Snow-Accum24h_Sfc_LatLon0.15_PT234H.grib2 2026-04-30 04:44 1.6M
20260430T00Z_MSC_GDPS_Snow-Accum6h_Sfc_LatLon0.15_PT234H.grib2 2026-04-30 04:44 1.4M
20260430T00Z_MSC_GDPS_Snow-Accum_Sfc_LatLon0.15_PT234H.grib2 2026-04-30 04:44 2.2M
20260430T00Z_MSC_GDPS_SnowDensity_Sfc_LatLon0.15_PT234H.grib2 2026-04-30 04:44 256K
20260430T00Z_MSC_GDPS_SnowDepth_Sfc_LatLon0.15_PT234H.grib2 2026-04-30 04:44 1.7M
20260430T00Z_MSC_GDPS_SoilTemp_DBS-0to10cm_LatLon0.15_PT234H.grib2 2026-04-30 04:44 516K
20260430T00Z_MSC_GDPS_SoilTemp_Sfc_LatLon0.15_PT234H.grib2 2026-04-30 04:44 580K
20260430T00Z_MSC_GDPS_SoilVolumetricIceContent_Sfc_LatLon0.15_PT234H.grib2 2026-04-30 04:44 178K
20260430T00Z_MSC_GDPS_SoilVolumetricWaterContent_DBS-0to10cm_LatLon0.15_PT234H.grib2 2026-04-30 04:44 595K
20260430T00Z_MSC_GDPS_SoilVolumetricWaterContent_DBS-0to1cm_LatLon0.15_PT234H.grib2 2026-04-30 04:44 649K
20260430T00Z_MSC_GDPS_SpecificHumidity_AGL-120m_LatLon0.15_PT234H.grib2 2026-04-30 04:44 1.1M
20260430T00Z_MSC_GDPS_SpecificHumidity_AGL-2m_LatLon0.15_PT234H.grib2 2026-04-30 04:44 1.2M
20260430T00Z_MSC_GDPS_SpecificHumidity_AGL-40m_LatLon0.15_PT234H.grib2 2026-04-30 04:44 1.1M
20260430T00Z_MSC_GDPS_SpecificHumidity_AGL-80m_LatLon0.15_PT234H.grib2 2026-04-30 04:44 1.1M
20260430T00Z_MSC_GDPS_SpecificHumidity_IsbL-0001_LatLon0.15_PT234H.grib2 2026-04-30 04:44 1.1M
20260430T00Z_MSC_GDPS_SpecificHumidity_IsbL-0005_LatLon0.15_PT234H.grib2 2026-04-30 04:44 1.0M
20260430T00Z_MSC_GDPS_SpecificHumidity_IsbL-0010_LatLon0.15_PT234H.grib2 2026-04-30 04:44 1.1M
20260430T00Z_MSC_GDPS_SpecificHumidity_IsbL-0020_LatLon0.15_PT234H.grib2 2026-04-30 04:44 1.1M
20260430T00Z_MSC_GDPS_SpecificHumidity_IsbL-0030_LatLon0.15_PT234H.grib2 2026-04-30 04:44 1.4M
20260430T00Z_MSC_GDPS_SpecificHumidity_IsbL-0050_LatLon0.15_PT234H.grib2 2026-04-30 04:44 1.4M
20260430T00Z_MSC_GDPS_SpecificHumidity_IsbL-0100_LatLon0.15_PT234H.grib2 2026-04-30 04:44 1.2M
20260430T00Z_MSC_GDPS_SpecificHumidity_IsbL-0150_LatLon0.15_PT234H.grib2 2026-04-30 04:44 1.3M
20260430T00Z_MSC_GDPS_SpecificHumidity_IsbL-0175_LatLon0.15_PT234H.grib2 2026-04-30 04:44 1.3M
20260430T00Z_MSC_GDPS_SpecificHumidity_IsbL-0200_LatLon0.15_PT234H.grib2 2026-04-30 04:44 1.3M
20260430T00Z_MSC_GDPS_SpecificHumidity_IsbL-0225_LatLon0.15_PT234H.grib2 2026-04-30 04:44 1.3M
20260430T00Z_MSC_GDPS_SpecificHumidity_IsbL-0250_LatLon0.15_PT234H.grib2 2026-04-30 04:44 1.5M
20260430T00Z_MSC_GDPS_SpecificHumidity_IsbL-0275_LatLon0.15_PT234H.grib2 2026-04-30 04:44 1.3M
20260430T00Z_MSC_GDPS_SpecificHumidity_IsbL-0300_LatLon0.15_PT234H.grib2 2026-04-30 04:44 1.3M
20260430T00Z_MSC_GDPS_SpecificHumidity_IsbL-0350_LatLon0.15_PT234H.grib2 2026-04-30 04:44 1.3M
20260430T00Z_MSC_GDPS_SpecificHumidity_IsbL-0400_LatLon0.15_PT234H.grib2 2026-04-30 04:44 1.5M
20260430T00Z_MSC_GDPS_SpecificHumidity_IsbL-0450_LatLon0.15_PT234H.grib2 2026-04-30 04:44 1.3M
20260430T00Z_MSC_GDPS_SpecificHumidity_IsbL-0500_LatLon0.15_PT234H.grib2 2026-04-30 04:44 1.5M
20260430T00Z_MSC_GDPS_SpecificHumidity_IsbL-0550_LatLon0.15_PT234H.grib2 2026-04-30 04:44 1.6M
20260430T00Z_MSC_GDPS_SpecificHumidity_IsbL-0600_LatLon0.15_PT234H.grib2 2026-04-30 04:44 1.8M
20260430T00Z_MSC_GDPS_SpecificHumidity_IsbL-0650_LatLon0.15_PT234H.grib2 2026-04-30 04:44 1.5M
20260430T00Z_MSC_GDPS_SpecificHumidity_IsbL-0700_LatLon0.15_PT234H.grib2 2026-04-30 04:44 1.6M
20260430T00Z_MSC_GDPS_SpecificHumidity_IsbL-0750_LatLon0.15_PT234H.grib2 2026-04-30 04:44 1.7M
20260430T00Z_MSC_GDPS_SpecificHumidity_IsbL-0800_LatLon0.15_PT234H.grib2 2026-04-30 04:44 1.9M
20260430T00Z_MSC_GDPS_SpecificHumidity_IsbL-0850_LatLon0.15_PT234H.grib2 2026-04-30 04:44 2.0M
20260430T00Z_MSC_GDPS_SpecificHumidity_IsbL-0875_LatLon0.15_PT234H.grib2 2026-04-30 04:44 2.0M
20260430T00Z_MSC_GDPS_SpecificHumidity_IsbL-0900_LatLon0.15_PT234H.grib2 2026-04-30 04:44 1.6M
20260430T00Z_MSC_GDPS_SpecificHumidity_IsbL-0925_LatLon0.15_PT234H.grib2 2026-04-30 04:44 1.6M
20260430T00Z_MSC_GDPS_SpecificHumidity_IsbL-0950_LatLon0.15_PT234H.grib2 2026-04-30 04:44 1.6M
20260430T00Z_MSC_GDPS_SpecificHumidity_IsbL-0970_LatLon0.15_PT234H.grib2 2026-04-30 04:44 1.6M
20260430T00Z_MSC_GDPS_SpecificHumidity_IsbL-0985_LatLon0.15_PT234H.grib2 2026-04-30 04:44 1.5M
20260430T00Z_MSC_GDPS_SpecificHumidity_IsbL-1000_LatLon0.15_PT234H.grib2 2026-04-30 04:44 1.5M
20260430T00Z_MSC_GDPS_SpecificHumidity_IsbL-1015_LatLon0.15_PT234H.grib2 2026-04-30 04:44 1.5M
20260430T00Z_MSC_GDPS_SpecificHumidity_Sfc_LatLon0.15_PT234H.grib2 2026-04-30 04:44 678K
20260430T00Z_MSC_GDPS_Thickness_IsbL-0850to0700_LatLon0.15_PT234H.grib2 2026-04-30 04:44 470K
20260430T00Z_MSC_GDPS_Thickness_IsbL-1000to0500_LatLon0.15_PT234H.grib2 2026-04-30 04:44 369K
20260430T00Z_MSC_GDPS_Thickness_IsbL-1000to0850_LatLon0.15_PT234H.grib2 2026-04-30 04:44 491K
20260430T00Z_MSC_GDPS_TotalCloudCover_Sfc_LatLon0.15_PT234H.grib2 2026-04-30 04:44 841K
20260430T00Z_MSC_GDPS_TotalTotalsIndex_Sfc_LatLon0.15_PT234H.grib2 2026-04-30 04:44 6.2M
20260430T00Z_MSC_GDPS_UVIndex-ClearSky-Max24h_Sfc_LatLon0.15_PT234H.grib2 2026-04-30 04:52 2.2M
20260430T00Z_MSC_GDPS_UVIndex-ClearSky_Sfc_LatLon0.15_PT234H.grib2 2026-04-30 04:52 1.0M
20260430T00Z_MSC_GDPS_UVIndex-Max24h_Sfc_LatLon0.15_PT234H.grib2 2026-04-30 04:52 3.2M
20260430T00Z_MSC_GDPS_UVIndex_Sfc_LatLon0.15_PT234H.grib2 2026-04-30 04:52 1.5M
20260430T00Z_MSC_GDPS_UpwardLongwaveRadiationFlux_NTAtm_LatLon0.15_PT234H.grib2 2026-04-30 04:44 838K
20260430T00Z_MSC_GDPS_VerticalVelocity_IsbL-0200_LatLon0.15_PT234H.grib2 2026-04-30 04:44 935K
20260430T00Z_MSC_GDPS_VerticalVelocity_IsbL-0250_LatLon0.15_PT234H.grib2 2026-04-30 04:44 1.1M
20260430T00Z_MSC_GDPS_VerticalVelocity_IsbL-0500_LatLon0.15_PT234H.grib2 2026-04-30 04:44 1.3M
20260430T00Z_MSC_GDPS_VerticalVelocity_IsbL-0600_LatLon0.15_PT234H.grib2 2026-04-30 04:44 1.1M
20260430T00Z_MSC_GDPS_VerticalVelocity_IsbL-0700_LatLon0.15_PT234H.grib2 2026-04-30 04:44 1.1M
20260430T00Z_MSC_GDPS_VerticalVelocity_IsbL-0850_LatLon0.15_PT234H.grib2 2026-04-30 04:44 1.6M
20260430T00Z_MSC_GDPS_WindChill_Sfc_LatLon0.15_PT234H.grib2 2026-04-30 04:44 5.3M
20260430T00Z_MSC_GDPS_WindDir_AGL-10m_LatLon0.15_PT234H.grib2 2026-04-30 04:44 1.3M
20260430T00Z_MSC_GDPS_WindDir_AGL-120m_LatLon0.15_PT234H.grib2 2026-04-30 04:44 1.3M
20260430T00Z_MSC_GDPS_WindDir_AGL-40m_LatLon0.15_PT234H.grib2 2026-04-30 04:44 1.4M
20260430T00Z_MSC_GDPS_WindDir_AGL-80m_LatLon0.15_PT234H.grib2 2026-04-30 04:44 1.4M
20260430T00Z_MSC_GDPS_WindDir_IsbL-0001_LatLon0.15_PT234H.grib2 2026-04-30 04:44 660K
20260430T00Z_MSC_GDPS_WindDir_IsbL-0005_LatLon0.15_PT234H.grib2 2026-04-30 04:44 808K
20260430T00Z_MSC_GDPS_WindDir_IsbL-0010_LatLon0.15_PT234H.grib2 2026-04-30 04:44 842K
20260430T00Z_MSC_GDPS_WindDir_IsbL-0020_LatLon0.15_PT234H.grib2 2026-04-30 04:44 938K
20260430T00Z_MSC_GDPS_WindDir_IsbL-0030_LatLon0.15_PT234H.grib2 2026-04-30 04:44 939K
20260430T00Z_MSC_GDPS_WindDir_IsbL-0050_LatLon0.15_PT234H.grib2 2026-04-30 04:44 943K
20260430T00Z_MSC_GDPS_WindDir_IsbL-0100_LatLon0.15_PT234H.grib2 2026-04-30 04:44 1.0M
20260430T00Z_MSC_GDPS_WindDir_IsbL-0150_LatLon0.15_PT234H.grib2 2026-04-30 04:44 1.0M
20260430T00Z_MSC_GDPS_WindDir_IsbL-0175_LatLon0.15_PT234H.grib2 2026-04-30 04:44 1.0M
20260430T00Z_MSC_GDPS_WindDir_IsbL-0200_LatLon0.15_PT234H.grib2 2026-04-30 04:44 1.1M
20260430T00Z_MSC_GDPS_WindDir_IsbL-0225_LatLon0.15_PT234H.grib2 2026-04-30 04:44 1.1M
20260430T00Z_MSC_GDPS_WindDir_IsbL-0250_LatLon0.15_PT234H.grib2 2026-04-30 04:44 1.1M
20260430T00Z_MSC_GDPS_WindDir_IsbL-0275_LatLon0.15_PT234H.grib2 2026-04-30 04:44 1.2M
20260430T00Z_MSC_GDPS_WindDir_IsbL-0300_LatLon0.15_PT234H.grib2 2026-04-30 04:44 1.2M
20260430T00Z_MSC_GDPS_WindDir_IsbL-0350_LatLon0.15_PT234H.grib2 2026-04-30 04:44 1.2M
20260430T00Z_MSC_GDPS_WindDir_IsbL-0400_LatLon0.15_PT234H.grib2 2026-04-30 04:44 1.3M
20260430T00Z_MSC_GDPS_WindDir_IsbL-0450_LatLon0.15_PT234H.grib2 2026-04-30 04:44 1.3M
20260430T00Z_MSC_GDPS_WindDir_IsbL-0500_LatLon0.15_PT234H.grib2 2026-04-30 04:44 1.4M
20260430T00Z_MSC_GDPS_WindDir_IsbL-0550_LatLon0.15_PT234H.grib2 2026-04-30 04:44 1.4M
20260430T00Z_MSC_GDPS_WindDir_IsbL-0600_LatLon0.15_PT234H.grib2 2026-04-30 04:44 1.5M
20260430T00Z_MSC_GDPS_WindDir_IsbL-0650_LatLon0.15_PT234H.grib2 2026-04-30 04:44 1.5M
20260430T00Z_MSC_GDPS_WindDir_IsbL-0700_LatLon0.15_PT234H.grib2 2026-04-30 04:44 1.6M
20260430T00Z_MSC_GDPS_WindDir_IsbL-0750_LatLon0.15_PT234H.grib2 2026-04-30 04:44 1.7M
20260430T00Z_MSC_GDPS_WindDir_IsbL-0800_LatLon0.15_PT234H.grib2 2026-04-30 04:44 1.8M
20260430T00Z_MSC_GDPS_WindDir_IsbL-0850_LatLon0.15_PT234H.grib2 2026-04-30 04:44 1.9M
20260430T00Z_MSC_GDPS_WindDir_IsbL-0875_LatLon0.15_PT234H.grib2 2026-04-30 04:44 1.9M
20260430T00Z_MSC_GDPS_WindDir_IsbL-0900_LatLon0.15_PT234H.grib2 2026-04-30 04:44 1.9M
20260430T00Z_MSC_GDPS_WindDir_IsbL-0925_LatLon0.15_PT234H.grib2 2026-04-30 04:44 2.0M
20260430T00Z_MSC_GDPS_WindDir_IsbL-0950_LatLon0.15_PT234H.grib2 2026-04-30 04:44 2.0M
20260430T00Z_MSC_GDPS_WindDir_IsbL-0970_LatLon0.15_PT234H.grib2 2026-04-30 04:44 2.0M
20260430T00Z_MSC_GDPS_WindDir_IsbL-0985_LatLon0.15_PT234H.grib2 2026-04-30 04:44 2.0M
20260430T00Z_MSC_GDPS_WindDir_IsbL-1000_LatLon0.15_PT234H.grib2 2026-04-30 04:44 2.0M
20260430T00Z_MSC_GDPS_WindDir_IsbL-1015_LatLon0.15_PT234H.grib2 2026-04-30 04:44 2.0M
20260430T00Z_MSC_GDPS_WindGust-Max_AGL-10m_LatLon0.15_PT234H.grib2 2026-04-30 04:44 2.2M
20260430T00Z_MSC_GDPS_WindGust-Min_AGL-10m_LatLon0.15_PT234H.grib2 2026-04-30 04:44 2.2M
20260430T00Z_MSC_GDPS_WindGust_AGL-10m_LatLon0.15_PT234H.grib2 2026-04-30 04:44 2.2M
20260430T00Z_MSC_GDPS_WindSpeed_AGL-10m_LatLon0.15_PT234H.grib2 2026-04-30 04:44 1.1M
20260430T00Z_MSC_GDPS_WindSpeed_AGL-120m_LatLon0.15_PT234H.grib2 2026-04-30 04:44 1.2M
20260430T00Z_MSC_GDPS_WindSpeed_AGL-40m_LatLon0.15_PT234H.grib2 2026-04-30 04:44 1.2M
20260430T00Z_MSC_GDPS_WindSpeed_AGL-80m_LatLon0.15_PT234H.grib2 2026-04-30 04:44 1.2M
20260430T00Z_MSC_GDPS_WindSpeed_IsbL-0001_LatLon0.15_PT234H.grib2 2026-04-30 04:44 649K
20260430T00Z_MSC_GDPS_WindSpeed_IsbL-0005_LatLon0.15_PT234H.grib2 2026-04-30 04:44 686K
20260430T00Z_MSC_GDPS_WindSpeed_IsbL-0010_LatLon0.15_PT234H.grib2 2026-04-30 04:44 617K
20260430T00Z_MSC_GDPS_WindSpeed_IsbL-0020_LatLon0.15_PT234H.grib2 2026-04-30 04:44 652K
20260430T00Z_MSC_GDPS_WindSpeed_IsbL-0030_LatLon0.15_PT234H.grib2 2026-04-30 04:44 850K
20260430T00Z_MSC_GDPS_WindSpeed_IsbL-0050_LatLon0.15_PT234H.grib2 2026-04-30 04:44 886K
20260430T00Z_MSC_GDPS_WindSpeed_IsbL-0100_LatLon0.15_PT234H.grib2 2026-04-30 04:44 1.1M
20260430T00Z_MSC_GDPS_WindSpeed_IsbL-0150_LatLon0.15_PT234H.grib2 2026-04-30 04:44 932K
20260430T00Z_MSC_GDPS_WindSpeed_IsbL-0175_LatLon0.15_PT234H.grib2 2026-04-30 04:44 1.0M
20260430T00Z_MSC_GDPS_WindSpeed_IsbL-0200_LatLon0.15_PT234H.grib2 2026-04-30 04:44 1.0M
20260430T00Z_MSC_GDPS_WindSpeed_IsbL-0225_LatLon0.15_PT234H.grib2 2026-04-30 04:44 1.1M
20260430T00Z_MSC_GDPS_WindSpeed_IsbL-0250_LatLon0.15_PT234H.grib2 2026-04-30 04:44 1.1M
20260430T00Z_MSC_GDPS_WindSpeed_IsbL-0275_LatLon0.15_PT234H.grib2 2026-04-30 04:44 1.1M
20260430T00Z_MSC_GDPS_WindSpeed_IsbL-0300_LatLon0.15_PT234H.grib2 2026-04-30 04:44 1.1M
20260430T00Z_MSC_GDPS_WindSpeed_IsbL-0350_LatLon0.15_PT234H.grib2 2026-04-30 04:44 1.1M
20260430T00Z_MSC_GDPS_WindSpeed_IsbL-0400_LatLon0.15_PT234H.grib2 2026-04-30 04:44 1.1M
20260430T00Z_MSC_GDPS_WindSpeed_IsbL-0450_LatLon0.15_PT234H.grib2 2026-04-30 04:44 1.1M
20260430T00Z_MSC_GDPS_WindSpeed_IsbL-0500_LatLon0.15_PT234H.grib2 2026-04-30 04:44 1.1M
20260430T00Z_MSC_GDPS_WindSpeed_IsbL-0550_LatLon0.15_PT234H.grib2 2026-04-30 04:44 1.1M
20260430T00Z_MSC_GDPS_WindSpeed_IsbL-0600_LatLon0.15_PT234H.grib2 2026-04-30 04:44 1.1M
20260430T00Z_MSC_GDPS_WindSpeed_IsbL-0650_LatLon0.15_PT234H.grib2 2026-04-30 04:44 1.4M
20260430T00Z_MSC_GDPS_WindSpeed_IsbL-0700_LatLon0.15_PT234H.grib2 2026-04-30 04:44 1.5M
20260430T00Z_MSC_GDPS_WindSpeed_IsbL-0750_LatLon0.15_PT234H.grib2 2026-04-30 04:44 1.6M
20260430T00Z_MSC_GDPS_WindSpeed_IsbL-0800_LatLon0.15_PT234H.grib2 2026-04-30 04:44 1.7M
20260430T00Z_MSC_GDPS_WindSpeed_IsbL-0850_LatLon0.15_PT234H.grib2 2026-04-30 04:44 1.8M
20260430T00Z_MSC_GDPS_WindSpeed_IsbL-0875_LatLon0.15_PT234H.grib2 2026-04-30 04:44 1.8M
20260430T00Z_MSC_GDPS_WindSpeed_IsbL-0900_LatLon0.15_PT234H.grib2 2026-04-30 04:44 1.8M
20260430T00Z_MSC_GDPS_WindSpeed_IsbL-0925_LatLon0.15_PT234H.grib2 2026-04-30 04:44 1.9M
20260430T00Z_MSC_GDPS_WindSpeed_IsbL-0950_LatLon0.15_PT234H.grib2 2026-04-30 04:44 1.9M
20260430T00Z_MSC_GDPS_WindSpeed_IsbL-0970_LatLon0.15_PT234H.grib2 2026-04-30 04:44 1.9M
20260430T00Z_MSC_GDPS_WindSpeed_IsbL-0985_LatLon0.15_PT234H.grib2 2026-04-30 04:44 1.9M
20260430T00Z_MSC_GDPS_WindSpeed_IsbL-1000_LatLon0.15_PT234H.grib2 2026-04-30 04:44 1.8M
20260430T00Z_MSC_GDPS_WindSpeed_IsbL-1015_LatLon0.15_PT234H.grib2 2026-04-30 04:44 1.8M
20260430T00Z_MSC_GDPS_WindU_AGL-10m_LatLon0.15_PT234H.grib2 2026-04-30 04:44 1.6M
20260430T00Z_MSC_GDPS_WindU_AGL-120m_LatLon0.15_PT234H.grib2 2026-04-30 04:44 1.0M
20260430T00Z_MSC_GDPS_WindU_AGL-40m_LatLon0.15_PT234H.grib2 2026-04-30 04:44 968K
20260430T00Z_MSC_GDPS_WindU_AGL-80m_LatLon0.15_PT234H.grib2 2026-04-30 04:44 1.0M
20260430T00Z_MSC_GDPS_WindU_IsbL-0001_LatLon0.15_PT234H.grib2 2026-04-30 04:44 499K
20260430T00Z_MSC_GDPS_WindU_IsbL-0005_LatLon0.15_PT234H.grib2 2026-04-30 04:44 683K
20260430T00Z_MSC_GDPS_WindU_IsbL-0010_LatLon0.15_PT234H.grib2 2026-04-30 04:44 691K
20260430T00Z_MSC_GDPS_WindU_IsbL-0020_LatLon0.15_PT234H.grib2 2026-04-30 04:44 717K
20260430T00Z_MSC_GDPS_WindU_IsbL-0030_LatLon0.15_PT234H.grib2 2026-04-30 04:44 728K
20260430T00Z_MSC_GDPS_WindU_IsbL-0050_LatLon0.15_PT234H.grib2 2026-04-30 04:44 757K
20260430T00Z_MSC_GDPS_WindU_IsbL-0100_LatLon0.15_PT234H.grib2 2026-04-30 04:44 861K
20260430T00Z_MSC_GDPS_WindU_IsbL-0150_LatLon0.15_PT234H.grib2 2026-04-30 04:44 1.0M
20260430T00Z_MSC_GDPS_WindU_IsbL-0175_LatLon0.15_PT234H.grib2 2026-04-30 04:44 1.0M
20260430T00Z_MSC_GDPS_WindU_IsbL-0200_LatLon0.15_PT234H.grib2 2026-04-30 04:44 838K
20260430T00Z_MSC_GDPS_WindU_IsbL-0225_LatLon0.15_PT234H.grib2 2026-04-30 04:44 849K
20260430T00Z_MSC_GDPS_WindU_IsbL-0250_LatLon0.15_PT234H.grib2 2026-04-30 04:44 853K
20260430T00Z_MSC_GDPS_WindU_IsbL-0275_LatLon0.15_PT234H.grib2 2026-04-30 04:44 882K
20260430T00Z_MSC_GDPS_WindU_IsbL-0300_LatLon0.15_PT234H.grib2 2026-04-30 04:44 874K
20260430T00Z_MSC_GDPS_WindU_IsbL-0350_LatLon0.15_PT234H.grib2 2026-04-30 04:44 891K
20260430T00Z_MSC_GDPS_WindU_IsbL-0400_LatLon0.15_PT234H.grib2 2026-04-30 04:44 894K
20260430T00Z_MSC_GDPS_WindU_IsbL-0450_LatLon0.15_PT234H.grib2 2026-04-30 04:44 893K
20260430T00Z_MSC_GDPS_WindU_IsbL-0500_LatLon0.15_PT234H.grib2 2026-04-30 04:44 1.1M
20260430T00Z_MSC_GDPS_WindU_IsbL-0550_LatLon0.15_PT234H.grib2 2026-04-30 04:44 1.1M
20260430T00Z_MSC_GDPS_WindU_IsbL-0600_LatLon0.15_PT234H.grib2 2026-04-30 04:44 1.1M
20260430T00Z_MSC_GDPS_WindU_IsbL-0650_LatLon0.15_PT234H.grib2 2026-04-30 04:44 1.2M
20260430T00Z_MSC_GDPS_WindU_IsbL-0700_LatLon0.15_PT234H.grib2 2026-04-30 04:44 1.2M
20260430T00Z_MSC_GDPS_WindU_IsbL-0750_LatLon0.15_PT234H.grib2 2026-04-30 04:44 1.3M
20260430T00Z_MSC_GDPS_WindU_IsbL-0800_LatLon0.15_PT234H.grib2 2026-04-30 04:44 1.4M
20260430T00Z_MSC_GDPS_WindU_IsbL-0850_LatLon0.15_PT234H.grib2 2026-04-30 04:44 1.4M
20260430T00Z_MSC_GDPS_WindU_IsbL-0875_LatLon0.15_PT234H.grib2 2026-04-30 04:44 1.5M
20260430T00Z_MSC_GDPS_WindU_IsbL-0900_LatLon0.15_PT234H.grib2 2026-04-30 04:44 1.5M
20260430T00Z_MSC_GDPS_WindU_IsbL-0925_LatLon0.15_PT234H.grib2 2026-04-30 04:44 1.5M
20260430T00Z_MSC_GDPS_WindU_IsbL-0950_LatLon0.15_PT234H.grib2 2026-04-30 04:44 1.4M
20260430T00Z_MSC_GDPS_WindU_IsbL-0970_LatLon0.15_PT234H.grib2 2026-04-30 04:44 1.4M
20260430T00Z_MSC_GDPS_WindU_IsbL-0985_LatLon0.15_PT234H.grib2 2026-04-30 04:44 1.4M
20260430T00Z_MSC_GDPS_WindU_IsbL-1000_LatLon0.15_PT234H.grib2 2026-04-30 04:44 1.7M
20260430T00Z_MSC_GDPS_WindU_IsbL-1015_LatLon0.15_PT234H.grib2 2026-04-30 04:44 1.6M
20260430T00Z_MSC_GDPS_WindV_AGL-10m_LatLon0.15_PT234H.grib2 2026-04-30 04:44 1.3M
20260430T00Z_MSC_GDPS_WindV_AGL-120m_LatLon0.15_PT234H.grib2 2026-04-30 04:44 1.0M
20260430T00Z_MSC_GDPS_WindV_AGL-40m_LatLon0.15_PT234H.grib2 2026-04-30 04:44 972K
20260430T00Z_MSC_GDPS_WindV_AGL-80m_LatLon0.15_PT234H.grib2 2026-04-30 04:44 1.0M
20260430T00Z_MSC_GDPS_WindV_IsbL-0001_LatLon0.15_PT234H.grib2 2026-04-30 04:44 679K
20260430T00Z_MSC_GDPS_WindV_IsbL-0005_LatLon0.15_PT234H.grib2 2026-04-30 04:44 759K
20260430T00Z_MSC_GDPS_WindV_IsbL-0010_LatLon0.15_PT234H.grib2 2026-04-30 04:44 785K
20260430T00Z_MSC_GDPS_WindV_IsbL-0020_LatLon0.15_PT234H.grib2 2026-04-30 04:44 835K
20260430T00Z_MSC_GDPS_WindV_IsbL-0030_LatLon0.15_PT234H.grib2 2026-04-30 04:44 927K
20260430T00Z_MSC_GDPS_WindV_IsbL-0050_LatLon0.15_PT234H.grib2 2026-04-30 04:44 973K
20260430T00Z_MSC_GDPS_WindV_IsbL-0100_LatLon0.15_PT234H.grib2 2026-04-30 04:44 852K
20260430T00Z_MSC_GDPS_WindV_IsbL-0150_LatLon0.15_PT234H.grib2 2026-04-30 04:44 1.0M
20260430T00Z_MSC_GDPS_WindV_IsbL-0175_LatLon0.15_PT234H.grib2 2026-04-30 04:44 1.0M
20260430T00Z_MSC_GDPS_WindV_IsbL-0200_LatLon0.15_PT234H.grib2 2026-04-30 04:44 837K
20260430T00Z_MSC_GDPS_WindV_IsbL-0225_LatLon0.15_PT234H.grib2 2026-04-30 04:44 846K
20260430T00Z_MSC_GDPS_WindV_IsbL-0250_LatLon0.15_PT234H.grib2 2026-04-30 04:44 848K
20260430T00Z_MSC_GDPS_WindV_IsbL-0275_LatLon0.15_PT234H.grib2 2026-04-30 04:44 876K
20260430T00Z_MSC_GDPS_WindV_IsbL-0300_LatLon0.15_PT234H.grib2 2026-04-30 04:44 868K
20260430T00Z_MSC_GDPS_WindV_IsbL-0350_LatLon0.15_PT234H.grib2 2026-04-30 04:44 883K
20260430T00Z_MSC_GDPS_WindV_IsbL-0400_LatLon0.15_PT234H.grib2 2026-04-30 04:44 1.1M
20260430T00Z_MSC_GDPS_WindV_IsbL-0450_LatLon0.15_PT234H.grib2 2026-04-30 04:44 1.1M
20260430T00Z_MSC_GDPS_WindV_IsbL-0500_LatLon0.15_PT234H.grib2 2026-04-30 04:44 1.1M
20260430T00Z_MSC_GDPS_WindV_IsbL-0550_LatLon0.15_PT234H.grib2 2026-04-30 04:44 1.1M
20260430T00Z_MSC_GDPS_WindV_IsbL-0600_LatLon0.15_PT234H.grib2 2026-04-30 04:44 1.1M
20260430T00Z_MSC_GDPS_WindV_IsbL-0650_LatLon0.15_PT234H.grib2 2026-04-30 04:44 1.2M
20260430T00Z_MSC_GDPS_WindV_IsbL-0700_LatLon0.15_PT234H.grib2 2026-04-30 04:44 1.2M
20260430T00Z_MSC_GDPS_WindV_IsbL-0750_LatLon0.15_PT234H.grib2 2026-04-30 04:44 1.3M
20260430T00Z_MSC_GDPS_WindV_IsbL-0800_LatLon0.15_PT234H.grib2 2026-04-30 04:44 1.3M
20260430T00Z_MSC_GDPS_WindV_IsbL-0850_LatLon0.15_PT234H.grib2 2026-04-30 04:44 1.4M
20260430T00Z_MSC_GDPS_WindV_IsbL-0875_LatLon0.15_PT234H.grib2 2026-04-30 04:44 1.5M
20260430T00Z_MSC_GDPS_WindV_IsbL-0900_LatLon0.15_PT234H.grib2 2026-04-30 04:44 1.5M
20260430T00Z_MSC_GDPS_WindV_IsbL-0925_LatLon0.15_PT234H.grib2 2026-04-30 04:44 1.5M
20260430T00Z_MSC_GDPS_WindV_IsbL-0950_LatLon0.15_PT234H.grib2 2026-04-30 04:44 1.4M
20260430T00Z_MSC_GDPS_WindV_IsbL-0970_LatLon0.15_PT234H.grib2 2026-04-30 04:44 1.4M
20260430T00Z_MSC_GDPS_WindV_IsbL-0985_LatLon0.15_PT234H.grib2 2026-04-30 04:44 1.4M
20260430T00Z_MSC_GDPS_WindV_IsbL-1000_LatLon0.15_PT234H.grib2 2026-04-30 04:44 1.4M
20260430T00Z_MSC_GDPS_WindV_IsbL-1015_LatLon0.15_PT234H.grib2 2026-04-30 04:44 1.3M